Kosmos-2268

operational
NORAD ID: 22999 Int'l Des: 1994-011 Owner: VKS Country: RU
LEOCIRCULARPOLAR

关于 Kosmos-2268

正在加载描述...

实时位置

正在加载3D地球...

即将过境

高度历史

Altitude vs Time

uPlot chart will show altitude changes over time

两行轨道根数

1 22999U 94011A 26062.07196878 .00000010 00000-0 -18183-5 0 9996
2 22999 82.5744 48.1005 0011465 82.4821 348.1160 12.61224947475381
Epoch: Mar 3, 2026 • Age: 16 hours

当前状态

高度 1422.3 km
速度 7.15 km/s
星下点 -1.01°S, 168.12°W
发射日期 Feb 12, 1994
运行时间 32 years
类型 other

技术详情

分类 Payload
质量 225.00 kg
干质量 225.00 kg
总质量 225.00 kg
长度 1.60 m
直径 0.80 m
跨度 7.00 m
形状 Cyl + Ant
制造商 NPOPMR
平台类型 Strela-3
阶段状态 In Orbit
所有者/国家 VKS/RU

大型星座

Loading constellations...